Year,Month,Day,Hour,Minute,Value (Times are PST for temperature in C)
2015,06,27,00,00,19.10
2015,06,27,00,01,19.10
2015,06,27,00,02,19.10
2015,06,27,00,03,19.20
2015,06,27,00,04,19.20
2015,06,27,00,05,19.20
2015,06,27,00,06,19.20
2015,06,27,00,07,19.20
2015,06,27,00,08,19.20
2015,06,27,00,09,19.10
2015,06,27,00,10,19.10
2015,06,27,00,11,19.00
2015,06,27,00,12,19.00
2015,06,27,00,13,18.90
2015,06,27,00,14,18.90
2015,06,27,00,15,18.90
2015,06,27,00,16,18.80
2015,06,27,00,17,18.80
2015,06,27,00,18,18.80
2015,06,27,00,19,18.80
2015,06,27,00,20,18.80
2015,06,27,00,21,18.70
2015,06,27,00,22,18.70
2015,06,27,00,23,18.70
2015,06,27,00,24,18.70
2015,06,27,00,25,18.70
2015,06,27,00,26,18.70
2015,06,27,00,27,18.70
2015,06,27,00,28,18.70
2015,06,27,00,29,18.60
2015,06,27,00,30,18.60
2015,06,27,00,31,18.60
2015,06,27,00,32,18.50
2015,06,27,00,33,18.50
2015,06,27,00,34,18.50
2015,06,27,00,35,18.50
2015,06,27,00,36,18.60
2015,06,27,00,37,18.60
2015,06,27,00,38,18.60
2015,06,27,00,39,18.70
2015,06,27,00,40,18.70
2015,06,27,00,41,18.70
2015,06,27,00,42,18.70
2015,06,27,00,43,18.80
2015,06,27,00,44,18.80
2015,06,27,00,45,18.80
2015,06,27,00,46,18.80
2015,06,27,00,47,18.80
2015,06,27,00,48,18.80
2015,06,27,00,49,18.80
2015,06,27,00,50,18.80
2015,06,27,00,51,18.80
2015,06,27,00,52,18.70
2015,06,27,00,53,18.70
2015,06,27,00,54,18.70
2015,06,27,00,55,18.70
2015,06,27,00,56,18.60
2015,06,27,00,57,18.60
2015,06,27,00,58,18.60
2015,06,27,00,59,18.60
2015,06,27,01,00,18.50
2015,06,27,01,01,18.50
2015,06,27,01,02,18.50
2015,06,27,01,03,18.40
2015,06,27,01,04,18.40
2015,06,27,01,05,18.40
2015,06,27,01,06,18.40
2015,06,27,01,07,18.40
2015,06,27,01,08,18.40
2015,06,27,01,09,18.40
2015,06,27,01,10,18.40
2015,06,27,01,11,18.40
2015,06,27,01,12,18.50
2015,06,27,01,13,18.50
2015,06,27,01,14,18.50
2015,06,27,01,15,18.50
2015,06,27,01,16,18.50
2015,06,27,01,17,18.50
2015,06,27,01,18,18.50
2015,06,27,01,19,18.50
2015,06,27,01,20,18.50
2015,06,27,01,21,18.50
2015,06,27,01,22,18.50
2015,06,27,01,23,18.50
2015,06,27,01,24,18.50
2015,06,27,01,25,18.40
2015,06,27,01,26,18.40
2015,06,27,01,27,18.40
2015,06,27,01,28,18.40
2015,06,27,01,29,18.30
2015,06,27,01,30,18.30
2015,06,27,01,31,18.20
2015,06,27,01,32,18.20
2015,06,27,01,33,18.20
2015,06,27,01,34,18.20
2015,06,27,01,35,18.20
2015,06,27,01,36,18.20
2015,06,27,01,37,18.20
2015,06,27,01,38,18.20
2015,06,27,01,39,18.20
2015,06,27,01,40,18.20
2015,06,27,01,41,18.20
2015,06,27,01,42,18.20
2015,06,27,01,43,18.20
2015,06,27,01,44,18.20
2015,06,27,01,45,18.20
2015,06,27,01,46,18.20
2015,06,27,01,47,18.20
2015,06,27,01,48,18.20
2015,06,27,01,49,18.20
2015,06,27,01,50,18.20
2015,06,27,01,51,18.20
2015,06,27,01,52,18.20
2015,06,27,01,53,18.10
2015,06,27,01,54,18.10
2015,06,27,01,55,18.10
2015,06,27,01,56,18.10
2015,06,27,01,57,18.00
2015,06,27,01,58,18.00
2015,06,27,01,59,18.00
2015,06,27,02,00,17.90
2015,06,27,02,01,17.90
2015,06,27,02,02,17.90
2015,06,27,02,03,17.90
2015,06,27,02,04,17.90
2015,06,27,02,05,17.80
2015,06,27,02,06,17.80
2015,06,27,02,07,17.80
2015,06,27,02,08,17.80
2015,06,27,02,09,17.80
2015,06,27,02,10,17.80
2015,06,27,02,11,17.80
2015,06,27,02,12,17.80
2015,06,27,02,13,17.80
2015,06,27,02,14,17.80
2015,06,27,02,15,17.80
2015,06,27,02,16,17.80
2015,06,27,02,17,17.80
2015,06,27,02,18,17.80
2015,06,27,02,19,17.80
2015,06,27,02,20,17.80
2015,06,27,02,21,17.80
2015,06,27,02,22,17.80
2015,06,27,02,23,17.80
2015,06,27,02,24,17.80
2015,06,27,02,25,17.80
2015,06,27,02,26,17.80
2015,06,27,02,27,17.80
2015,06,27,02,28,17.80
2015,06,27,02,29,17.80
2015,06,27,02,30,17.80
2015,06,27,02,31,17.90
2015,06,27,02,32,17.90
2015,06,27,02,33,17.90
2015,06,27,02,34,17.90
2015,06,27,02,35,17.90
2015,06,27,02,36,17.80
2015,06,27,02,37,17.80
2015,06,27,02,38,17.80
2015,06,27,02,39,17.80
2015,06,27,02,40,17.80
2015,06,27,02,41,17.80
2015,06,27,02,42,17.80
2015,06,27,02,43,17.80
2015,06,27,02,44,17.80
2015,06,27,02,45,17.80
2015,06,27,02,46,17.70
2015,06,27,02,47,17.70
2015,06,27,02,48,17.70
2015,06,27,02,49,17.70
2015,06,27,02,50,17.70
2015,06,27,02,51,17.70
2015,06,27,02,52,17.70
2015,06,27,02,53,17.70
2015,06,27,02,54,17.70
2015,06,27,02,55,17.60
2015,06,27,02,56,17.60
2015,06,27,02,57,17.60
2015,06,27,02,58,17.60
2015,06,27,02,59,17.60
2015,06,27,03,00,17.60
2015,06,27,03,01,17.60
2015,06,27,03,02,17.60
2015,06,27,03,03,17.60
2015,06,27,03,04,17.70
2015,06,27,03,05,17.60
2015,06,27,03,06,17.60
2015,06,27,03,07,17.60
2015,06,27,03,08,17.60
2015,06,27,03,09,17.60
2015,06,27,03,10,17.60
2015,06,27,03,11,17.60
2015,06,27,03,12,17.60
2015,06,27,03,13,17.60
2015,06,27,03,14,17.60
2015,06,27,03,15,17.50
2015,06,27,03,16,17.50
2015,06,27,03,17,17.50
2015,06,27,03,18,17.50
2015,06,27,03,19,17.50
2015,06,27,03,20,17.40
2015,06,27,03,21,17.40
2015,06,27,03,22,17.40
2015,06,27,03,23,17.50
2015,06,27,03,24,17.50
2015,06,27,03,25,17.50
2015,06,27,03,26,17.40
2015,06,27,03,27,17.40
2015,06,27,03,28,17.40
2015,06,27,03,29,17.40
2015,06,27,03,30,17.40
2015,06,27,03,31,17.40
2015,06,27,03,32,17.40
2015,06,27,03,33,17.40
2015,06,27,03,34,17.40
2015,06,27,03,35,17.40
2015,06,27,03,36,17.40
2015,06,27,03,37,17.40
2015,06,27,03,38,17.40
2015,06,27,03,39,17.40
2015,06,27,03,40,17.40
2015,06,27,03,41,17.40
2015,06,27,03,42,17.40
2015,06,27,03,43,17.40
2015,06,27,03,44,17.30
2015,06,27,03,45,17.30
2015,06,27,03,46,17.30
2015,06,27,03,47,17.30
2015,06,27,03,48,17.30
2015,06,27,03,49,17.30
2015,06,27,03,50,17.30
2015,06,27,03,51,17.30
2015,06,27,03,52,17.30
2015,06,27,03,53,17.30
2015,06,27,03,54,17.30
2015,06,27,03,55,17.30
2015,06,27,03,56,17.20
2015,06,27,03,57,17.20
2015,06,27,03,58,17.20
2015,06,27,03,59,17.20
2015,06,27,04,00,17.20
2015,06,27,04,01,17.20
2015,06,27,04,02,17.20
2015,06,27,04,03,17.20
2015,06,27,05,02,17.00
2015,06,27,05,03,16.90
2015,06,27,05,04,16.90
2015,06,27,05,05,16.90
2015,06,27,05,06,16.90
2015,06,27,05,07,16.90
2015,06,27,05,08,16.90
2015,06,27,05,09,16.90
2015,06,27,05,10,16.90
2015,06,27,05,11,16.90
2015,06,27,05,12,16.90
2015,06,27,05,13,16.90
2015,06,27,05,14,16.90
2015,06,27,05,15,16.90
2015,06,27,05,16,16.90
2015,06,27,05,17,16.90
2015,06,27,05,18,16.90
2015,06,27,05,19,16.90
2015,06,27,05,20,16.90
2015,06,27,05,21,16.90
2015,06,27,05,22,16.90
2015,06,27,05,23,16.90
2015,06,27,05,24,16.90
2015,06,27,05,25,16.90
2015,06,27,05,26,16.90
2015,06,27,05,27,16.90
2015,06,27,05,28,16.90
2015,06,27,05,29,16.80
2015,06,27,05,30,16.80
2015,06,27,05,31,16.80
2015,06,27,05,32,16.80
2015,06,27,05,33,16.80
2015,06,27,05,34,16.80
2015,06,27,05,35,16.80
2015,06,27,05,36,16.80
2015,06,27,05,37,16.80
2015,06,27,05,38,16.80
2015,06,27,05,39,16.80
2015,06,27,05,40,16.90
2015,06,27,05,41,16.80
2015,06,27,05,42,16.80
2015,06,27,05,43,16.80
2015,06,27,05,44,16.80
2015,06,27,05,45,16.80
2015,06,27,05,46,16.80
2015,06,27,05,47,16.90
2015,06,27,05,48,16.90
2015,06,27,05,49,16.90
2015,06,27,05,50,16.90
2015,06,27,05,51,16.90
2015,06,27,05,52,16.90
2015,06,27,05,53,16.90
2015,06,27,05,54,17.00
2015,06,27,05,55,17.00
2015,06,27,05,56,17.00
2015,06,27,05,57,17.00
2015,06,27,05,58,17.10
2015,06,27,05,59,17.10
2015,06,27,06,00,17.10
2015,06,27,06,01,17.10
2015,06,27,06,02,17.10
2015,06,27,06,03,17.10
2015,06,27,06,04,17.10
2015,06,27,06,05,17.20
2015,06,27,06,06,17.20
2015,06,27,06,07,17.20
2015,06,27,06,08,17.20
2015,06,27,06,09,17.20
2015,06,27,06,10,17.20
2015,06,27,06,11,17.20
2015,06,27,06,12,17.20
2015,06,27,06,13,17.20
2015,06,27,06,14,17.20
2015,06,27,06,15,17.20
2015,06,27,06,16,17.30
2015,06,27,06,17,17.30
2015,06,27,06,18,17.30
2015,06,27,06,19,17.30
2015,06,27,06,20,17.30
2015,06,27,06,21,17.30
2015,06,27,06,22,17.30
2015,06,27,06,23,17.30
2015,06,27,06,24,17.30
2015,06,27,06,25,17.30
2015,06,27,06,26,17.40
2015,06,27,06,27,17.40
2015,06,27,06,28,17.40
2015,06,27,06,29,17.40
2015,06,27,06,30,17.40
2015,06,27,06,31,17.40
2015,06,27,06,32,17.50
2015,06,27,06,33,17.50
2015,06,27,06,34,17.50
2015,06,27,06,35,17.50
2015,06,27,06,36,17.50
2015,06,27,06,37,17.60
2015,06,27,06,38,17.60
2015,06,27,06,39,17.60
2015,06,27,06,40,17.60
2015,06,27,06,41,17.60
2015,06,27,06,42,17.60
2015,06,27,06,43,17.60
2015,06,27,06,44,17.70
2015,06,27,06,45,17.70
2015,06,27,06,46,17.70
2015,06,27,06,47,17.70
2015,06,27,06,48,17.80
2015,06,27,06,49,17.80
2015,06,27,06,50,17.80
2015,06,27,06,51,17.90
2015,06,27,06,52,17.90
2015,06,27,06,53,17.90
2015,06,27,06,54,18.00
2015,06,27,06,55,18.00
2015,06,27,06,56,18.00
2015,06,27,06,57,18.00
2015,06,27,06,58,18.00
2015,06,27,06,59,18.00
2015,06,27,07,00,18.00
2015,06,27,07,01,17.90
2015,06,27,07,02,17.90
2015,06,27,07,03,17.90
2015,06,27,07,04,17.90
2015,06,27,07,05,17.90
2015,06,27,07,06,17.90
2015,06,27,07,07,17.90
2015,06,27,07,08,17.90
2015,06,27,07,09,17.90
2015,06,27,07,10,17.90
2015,06,27,07,11,17.90
2015,06,27,07,12,17.90
2015,06,27,07,13,17.90
2015,06,27,07,14,17.90
2015,06,27,07,15,17.90
2015,06,27,07,16,17.90
2015,06,27,07,17,17.90
2015,06,27,07,18,17.90
2015,06,27,07,19,17.90
2015,06,27,07,20,17.90
2015,06,27,07,21,17.90
2015,06,27,07,22,18.00
2015,06,27,07,23,18.00
2015,06,27,07,24,18.00
2015,06,27,07,25,18.00
2015,06,27,07,26,18.10
2015,06,27,07,27,18.10
2015,06,27,07,28,18.10
2015,06,27,07,29,18.20
2015,06,27,07,30,18.20
2015,06,27,07,31,18.20
2015,06,27,07,32,18.30
2015,06,27,07,33,18.20
2015,06,27,07,34,18.10
2015,06,27,07,35,18.00
2015,06,27,07,36,17.90
2015,06,27,07,37,17.90
2015,06,27,07,38,17.90
2015,06,27,07,39,17.90
2015,06,27,07,40,17.90
2015,06,27,07,41,17.90
2015,06,27,07,42,17.90
2015,06,27,07,43,18.00
2015,06,27,07,44,18.00
2015,06,27,07,45,18.00
2015,06,27,07,46,18.10
2015,06,27,07,47,18.10
2015,06,27,07,48,18.10
2015,06,27,07,49,18.10
2015,06,27,07,50,18.10
2015,06,27,07,51,18.10
2015,06,27,07,52,18.10
2015,06,27,07,53,18.10
2015,06,27,07,54,18.20
2015,06,27,07,55,18.20
2015,06,27,07,56,18.20
2015,06,27,07,57,18.30
2015,06,27,07,58,18.30
2015,06,27,07,59,18.30
2015,06,27,08,00,18.40
2015,06,27,08,01,18.40
2015,06,27,08,02,18.40
2015,06,27,08,03,18.50
2015,06,27,08,04,18.50
2015,06,27,08,05,18.60
2015,06,27,08,06,18.60
2015,06,27,08,07,18.60
2015,06,27,08,08,18.60
2015,06,27,08,09,18.70
2015,06,27,08,10,18.70
2015,06,27,08,11,18.70
2015,06,27,08,12,18.70
2015,06,27,08,13,18.70
2015,06,27,08,14,18.70
2015,06,27,08,15,18.70
2015,06,27,08,16,18.80
2015,06,27,08,17,18.70
2015,06,27,08,18,18.60
2015,06,27,08,19,18.60
2015,06,27,08,20,18.60
2015,06,27,08,21,18.50
2015,06,27,08,22,18.40
2015,06,27,08,23,18.40
2015,06,27,08,24,18.40
2015,06,27,08,25,18.40
2015,06,27,08,26,18.40
2015,06,27,08,27,18.40
2015,06,27,08,28,18.30
2015,06,27,08,29,18.20
2015,06,27,08,30,18.10
2015,06,27,08,31,18.00
2015,06,27,08,32,17.90
2015,06,27,08,33,17.90
2015,06,27,08,34,17.70
2015,06,27,08,35,17.60
2015,06,27,08,36,17.50
2015,06,27,08,37,17.40
2015,06,27,08,38,17.40
2015,06,27,08,39,17.40
2015,06,27,08,40,17.40
2015,06,27,08,41,17.40
2015,06,27,08,42,17.40
2015,06,27,08,43,17.40
2015,06,27,08,44,17.40
2015,06,27,08,45,17.40
2015,06,27,08,46,17.40
2015,06,27,08,47,17.50
2015,06,27,08,48,17.50
2015,06,27,08,49,17.50
2015,06,27,08,50,17.50
2015,06,27,08,51,17.50
2015,06,27,08,52,17.50
2015,06,27,08,53,17.60
2015,06,27,08,54,17.60
2015,06,27,08,55,17.70
2015,06,27,08,56,17.70
2015,06,27,08,57,17.80
2015,06,27,08,58,17.80
2015,06,27,08,59,17.80
2015,06,27,09,00,17.80
2015,06,27,09,01,17.80
2015,06,27,09,02,17.80
2015,06,27,09,03,17.80
2015,06,27,09,04,17.70
2015,06,27,09,05,17.70
2015,06,27,09,06,17.70
2015,06,27,09,07,17.80
2015,06,27,09,08,17.80
2015,06,27,09,09,17.70
2015,06,27,09,10,17.70
2015,06,27,09,11,17.70
2015,06,27,09,12,17.70
2015,06,27,09,13,17.80
2015,06,27,09,14,17.80
2015,06,27,09,15,17.80
2015,06,27,09,16,17.80
2015,06,27,09,17,17.80
2015,06,27,09,18,17.90
2015,06,27,09,19,17.90
2015,06,27,09,20,17.90
2015,06,27,09,21,17.90
2015,06,27,09,22,17.90
2015,06,27,09,23,18.00
2015,06,27,09,24,18.00
2015,06,27,09,25,18.00
2015,06,27,09,26,18.00
2015,06,27,09,27,18.10
2015,06,27,09,28,18.10
2015,06,27,09,29,18.10
2015,06,27,09,30,18.20
2015,06,27,09,31,18.20
2015,06,27,09,32,18.20
2015,06,27,09,33,18.30
2015,06,27,09,34,18.40
2015,06,27,09,35,18.40
2015,06,27,09,36,18.50
2015,06,27,09,37,18.60
2015,06,27,09,38,18.60
2015,06,27,09,39,18.60
2015,06,27,09,40,18.60
2015,06,27,09,41,18.60
2015,06,27,09,42,18.60
2015,06,27,09,43,18.70
2015,06,27,09,44,18.70
2015,06,27,09,45,18.70
2015,06,27,09,46,18.70
2015,06,27,09,47,18.70
2015,06,27,09,48,18.70
2015,06,27,09,49,18.70
2015,06,27,09,50,18.70
2015,06,27,09,51,18.70
2015,06,27,09,52,18.60
2015,06,27,09,53,18.60
2015,06,27,09,54,18.60
2015,06,27,09,55,18.60
2015,06,27,09,56,18.60
2015,06,27,09,57,18.60
2015,06,27,09,58,18.70
2015,06,27,09,59,18.70
2015,06,27,10,00,18.80
2015,06,27,10,01,18.80
2015,06,27,10,02,18.90
2015,06,27,10,03,18.90
2015,06,27,10,04,18.90
2015,06,27,10,05,19.00
2015,06,27,10,06,19.00
2015,06,27,10,07,19.10
2015,06,27,10,08,19.10
2015,06,27,10,09,19.20
2015,06,27,10,10,19.30
2015,06,27,10,11,19.30
2015,06,27,10,12,19.40
2015,06,27,10,13,19.40
2015,06,27,10,14,19.40
2015,06,27,10,15,19.30
2015,06,27,10,16,19.20
2015,06,27,10,17,19.20
2015,06,27,10,18,19.20
2015,06,27,10,19,19.10
2015,06,27,10,20,19.10
2015,06,27,10,21,19.10
2015,06,27,10,22,19.10
2015,06,27,10,23,19.10
2015,06,27,10,24,19.20
2015,06,27,10,25,19.20
2015,06,27,10,26,19.10
2015,06,27,10,27,19.10
2015,06,27,10,28,19.10
2015,06,27,10,29,19.10
2015,06,27,10,30,19.10
2015,06,27,10,31,19.10
2015,06,27,10,32,19.20
2015,06,27,10,33,19.20
2015,06,27,10,34,19.20
2015,06,27,10,35,19.10
2015,06,27,10,36,19.00
2015,06,27,10,37,19.00
2015,06,27,10,38,18.90
2015,06,27,10,39,18.90
2015,06,27,10,40,18.90
2015,06,27,10,41,19.00
2015,06,27,10,42,19.00
2015,06,27,10,43,19.10
2015,06,27,10,44,19.10
2015,06,27,10,45,19.00
2015,06,27,10,46,19.00
2015,06,27,10,47,18.90
2015,06,27,10,48,18.80
2015,06,27,10,49,18.70
2015,06,27,10,50,18.70
2015,06,27,10,51,18.70
2015,06,27,10,52,18.80
2015,06,27,10,53,18.90
2015,06,27,10,54,19.00
2015,06,27,10,55,19.10
2015,06,27,10,56,19.10
2015,06,27,10,57,19.20
2015,06,27,10,58,19.20
2015,06,27,10,59,19.30
2015,06,27,11,00,19.40
2015,06,27,11,01,19.40
2015,06,27,11,02,19.50
2015,06,27,11,03,19.60
2015,06,27,11,04,19.70
2015,06,27,11,05,19.70
2015,06,27,11,06,19.70
2015,06,27,11,07,19.70
2015,06,27,11,08,19.70
2015,06,27,11,09,19.70
2015,06,27,11,10,19.70
2015,06,27,11,11,19.80
2015,06,27,11,12,19.90
2015,06,27,11,13,20.00
2015,06,27,11,14,20.10
2015,06,27,11,15,20.20
2015,06,27,11,16,20.30
2015,06,27,11,17,20.30
2015,06,27,11,18,20.40
2015,06,27,11,19,20.40
2015,06,27,11,20,20.50
2015,06,27,11,21,20.60
2015,06,27,11,22,20.60
2015,06,27,11,23,20.70
2015,06,27,11,24,20.80
2015,06,27,11,25,20.80
2015,06,27,11,26,20.80
2015,06,27,11,27,20.80
2015,06,27,11,28,20.80
2015,06,27,11,29,20.70
2015,06,27,11,30,20.70
2015,06,27,11,31,20.60
2015,06,27,11,32,20.70
2015,06,27,11,33,20.70
2015,06,27,11,34,20.70
2015,06,27,11,35,20.80
2015,06,27,11,36,20.90
2015,06,27,11,37,21.00
2015,06,27,11,38,21.10
2015,06,27,11,39,21.20
2015,06,27,11,40,21.30
2015,06,27,11,41,21.40
2015,06,27,11,42,21.50
2015,06,27,11,43,21.70
2015,06,27,11,44,21.80
2015,06,27,11,45,21.90
2015,06,27,11,46,22.00
2015,06,27,11,47,22.00
2015,06,27,11,48,22.10
2015,06,27,11,49,22.20
2015,06,27,11,50,22.30
2015,06,27,11,51,22.30
2015,06,27,11,52,22.40
2015,06,27,11,53,22.40
2015,06,27,11,54,22.50
2015,06,27,11,55,22.50
2015,06,27,11,56,22.50
2015,06,27,11,57,22.40
2015,06,27,11,58,22.40
2015,06,27,11,59,22.50
2015,06,27,12,00,22.60
2015,06,27,12,01,22.60
2015,06,27,12,02,22.60
2015,06,27,12,03,22.60
2015,06,27,12,04,22.60
2015,06,27,12,05,22.70
2015,06,27,12,06,22.80
2015,06,27,12,07,22.80
2015,06,27,12,08,22.80
2015,06,27,12,09,22.80
2015,06,27,12,10,22.70
2015,06,27,12,11,22.40
2015,06,27,12,12,22.20
2015,06,27,12,13,22.10
2015,06,27,12,14,22.10
2015,06,27,12,15,22.10
2015,06,27,12,16,22.20
2015,06,27,12,17,22.10
2015,06,27,12,18,22.20
2015,06,27,12,19,22.20
2015,06,27,12,20,22.30
2015,06,27,12,21,22.40
2015,06,27,12,22,22.50
2015,06,27,12,23,22.60
2015,06,27,12,24,22.60
2015,06,27,12,25,22.50
2015,06,27,12,26,22.40
2015,06,27,12,27,22.30
2015,06,27,12,28,22.30
2015,06,27,12,29,22.30
2015,06,27,12,30,22.40
2015,06,27,12,31,22.40
2015,06,27,12,32,22.50
2015,06,27,12,33,22.50
2015,06,27,12,34,22.60
2015,06,27,12,35,22.60
2015,06,27,12,36,22.70
2015,06,27,12,37,22.80
2015,06,27,12,38,22.80
2015,06,27,12,39,22.80
2015,06,27,12,40,22.90
2015,06,27,12,41,22.90
2015,06,27,12,42,23.10
2015,06,27,12,43,23.20
2015,06,27,12,44,23.30
2015,06,27,12,45,23.40
2015,06,27,12,46,23.40
2015,06,27,12,47,23.50
2015,06,27,12,48,23.50
2015,06,27,12,49,23.50
2015,06,27,12,50,23.50
2015,06,27,12,51,23.40
2015,06,27,12,52,23.50
2015,06,27,12,53,23.60
2015,06,27,12,54,23.60
2015,06,27,12,55,23.60
2015,06,27,12,56,23.60
2015,06,27,12,57,23.60
2015,06,27,12,58,23.60
2015,06,27,12,59,23.60
2015,06,27,13,00,23.60
2015,06,27,13,01,23.60
2015,06,27,13,02,23.70
2015,06,27,13,03,23.70
2015,06,27,13,04,23.70
2015,06,27,13,05,23.80
2015,06,27,13,06,23.80
2015,06,27,13,07,23.80
2015,06,27,13,08,23.60
2015,06,27,13,09,23.60
2015,06,27,13,10,23.50
2015,06,27,13,11,23.50
2015,06,27,13,12,23.60
2015,06,27,13,13,23.60
2015,06,27,13,14,23.60
2015,06,27,13,15,23.70
2015,06,27,13,16,23.70
2015,06,27,13,17,23.80
2015,06,27,13,18,23.90
2015,06,27,13,19,24.00
2015,06,27,13,20,24.10
2015,06,27,13,21,24.20
2015,06,27,13,22,24.30
2015,06,27,13,23,24.30
2015,06,27,13,24,24.20
2015,06,27,13,25,24.20
2015,06,27,13,26,24.10
2015,06,27,13,27,24.00
2015,06,27,13,28,23.80
2015,06,27,13,29,23.70
2015,06,27,13,30,23.50
2015,06,27,13,31,23.40
2015,06,27,13,32,23.30
2015,06,27,13,33,23.20
2015,06,27,13,34,23.20
2015,06,27,13,35,23.20
2015,06,27,13,36,23.20
2015,06,27,13,37,23.30
2015,06,27,13,38,23.40
2015,06,27,13,39,23.50
2015,06,27,13,40,23.50
2015,06,27,13,41,23.40
2015,06,27,13,42,23.40
2015,06,27,13,43,23.40
2015,06,27,13,44,23.50
2015,06,27,13,45,23.50
2015,06,27,13,46,23.60
2015,06,27,13,47,23.60
2015,06,27,13,48,23.70
2015,06,27,13,49,23.80
2015,06,27,13,50,23.90
2015,06,27,13,51,24.00
2015,06,27,13,52,24.00
2015,06,27,13,53,23.90
2015,06,27,13,54,24.00
2015,06,27,13,55,24.00
2015,06,27,13,56,24.00
2015,06,27,13,57,24.00
2015,06,27,13,58,24.00
2015,06,27,13,59,23.80
2015,06,27,14,00,23.70
2015,06,27,14,01,23.70
2015,06,27,14,02,23.80
2015,06,27,14,03,23.80
2015,06,27,14,04,23.90
2015,06,27,14,05,24.00
2015,06,27,14,06,24.20
2015,06,27,14,07,24.30
2015,06,27,14,08,24.40
2015,06,27,14,09,24.40
2015,06,27,14,10,24.40
2015,06,27,14,11,24.30
2015,06,27,14,12,24.20
2015,06,27,14,13,24.10
2015,06,27,14,14,24.10
2015,06,27,14,15,24.20
2015,06,27,14,16,24.20
2015,06,27,14,17,24.30
2015,06,27,14,18,24.40
2015,06,27,14,19,24.60
2015,06,27,14,20,24.70
2015,06,27,14,21,24.90
2015,06,27,14,22,25.00
2015,06,27,14,23,25.20
2015,06,27,14,24,25.40
2015,06,27,14,25,25.50
2015,06,27,14,26,25.50
2015,06,27,14,27,25.60
2015,06,27,14,28,25.40
2015,06,27,14,29,25.20
2015,06,27,14,30,25.10
2015,06,27,14,31,24.90
2015,06,27,14,32,24.70
2015,06,27,14,33,24.60
2015,06,27,14,34,24.60
2015,06,27,14,35,24.60
2015,06,27,14,36,24.60
2015,06,27,14,37,24.70
2015,06,27,14,38,24.80
2015,06,27,14,39,25.00
2015,06,27,14,40,25.20
2015,06,27,14,41,25.40
2015,06,27,14,42,25.50
2015,06,27,14,43,25.60
2015,06,27,14,44,25.60
2015,06,27,14,45,25.50
2015,06,27,14,46,25.40
2015,06,27,14,47,25.30
2015,06,27,14,48,25.30
2015,06,27,14,49,25.20
2015,06,27,14,50,25.20
2015,06,27,14,51,25.20
2015,06,27,14,52,25.20
2015,06,27,14,53,25.20
2015,06,27,14,54,25.20
2015,06,27,14,55,25.20
2015,06,27,14,56,25.20
2015,06,27,14,57,25.20
2015,06,27,14,58,25.20
2015,06,27,14,59,25.10
2015,06,27,15,00,25.10
2015,06,27,15,01,25.20
2015,06,27,15,02,25.30
2015,06,27,15,03,25.40
2015,06,27,15,04,25.50
2015,06,27,15,05,25.60
2015,06,27,15,06,25.80
2015,06,27,15,07,25.90
2015,06,27,15,08,25.80
2015,06,27,15,09,25.70
2015,06,27,15,10,25.70
2015,06,27,15,11,25.80
2015,06,27,15,12,25.90
2015,06,27,15,13,25.90
2015,06,27,15,14,25.90
2015,06,27,15,15,26.00
2015,06,27,15,16,26.10
2015,06,27,15,17,26.20
2015,06,27,15,18,26.30
2015,06,27,15,19,26.50
2015,06,27,15,20,26.60
2015,06,27,15,21,26.80
2015,06,27,15,22,26.90
2015,06,27,15,23,27.00
2015,06,27,15,24,26.90
2015,06,27,15,25,26.90
2015,06,27,15,26,27.00
2015,06,27,15,27,27.10
2015,06,27,15,28,27.20
2015,06,27,15,29,27.20
2015,06,27,15,30,27.30
2015,06,27,15,31,27.30
2015,06,27,15,32,27.20
2015,06,27,15,33,27.20
2015,06,27,15,34,27.20
2015,06,27,15,35,27.30
2015,06,27,15,36,27.40
2015,06,27,15,37,27.40
2015,06,27,15,38,27.50
2015,06,27,15,39,27.60
2015,06,27,15,40,27.60
2015,06,27,15,41,27.70
2015,06,27,15,42,27.70
2015,06,27,15,43,27.70
2015,06,27,15,44,27.70
2015,06,27,15,45,27.70
2015,06,27,15,46,27.70
2015,06,27,15,47,27.80
2015,06,27,15,48,27.80
2015,06,27,15,49,27.80
2015,06,27,15,50,27.90
2015,06,27,15,51,28.00
2015,06,27,15,52,28.10
2015,06,27,15,53,28.20
2015,06,27,15,54,28.20
2015,06,27,15,55,28.20
2015,06,27,15,56,28.30
2015,06,27,15,57,28.40
2015,06,27,15,58,28.40
2015,06,27,15,59,28.40
2015,06,27,16,00,28.40
2015,06,27,16,01,28.50
2015,06,27,16,02,28.50
2015,06,27,16,03,28.60
2015,06,27,16,04,28.60
2015,06,27,16,05,28.60
2015,06,27,16,06,28.50
2015,06,27,16,07,28.50
2015,06,27,16,08,28.50
2015,06,27,16,09,28.60
2015,06,27,16,10,28.60
2015,06,27,16,11,28.60
2015,06,27,16,12,28.60
2015,06,27,16,13,28.70
2015,06,27,16,14,28.70
2015,06,27,16,15,28.80
2015,06,27,16,16,29.00
2015,06,27,16,17,29.00
2015,06,27,16,18,29.10
2015,06,27,16,19,29.10
2015,06,27,16,20,29.10
2015,06,27,16,21,29.10
2015,06,27,16,22,29.00
2015,06,27,16,23,28.80
2015,06,27,16,24,28.70
2015,06,27,16,25,28.60
2015,06,27,16,26,28.60
2015,06,27,16,27,28.60
2015,06,27,16,28,28.50
2015,06,27,16,29,28.50
2015,06,27,16,30,28.50
2015,06,27,16,31,28.60
2015,06,27,16,32,28.60
2015,06,27,16,33,28.50
2015,06,27,16,34,28.40
2015,06,27,16,35,28.40
2015,06,27,16,36,28.30
2015,06,27,16,37,28.20
2015,06,27,16,38,28.10
2015,06,27,16,39,28.10
2015,06,27,16,40,28.10
2015,06,27,16,41,28.10
2015,06,27,16,42,28.10
2015,06,27,16,43,28.10
2015,06,27,16,44,28.20
2015,06,27,16,45,28.20
2015,06,27,16,46,28.20
2015,06,27,16,47,28.20
2015,06,27,16,48,28.20
2015,06,27,16,49,28.30
2015,06,27,16,50,28.30
2015,06,27,16,51,28.30
2015,06,27,16,52,28.40
2015,06,27,16,53,28.50
2015,06,27,16,54,28.60
2015,06,27,16,55,28.70
2015,06,27,16,56,28.80
2015,06,27,16,57,28.80
2015,06,27,16,58,28.70
2015,06,27,16,59,28.60
2015,06,27,17,00,28.60
2015,06,27,17,01,28.60
2015,06,27,17,02,28.70
2015,06,27,17,03,28.80
2015,06,27,17,04,28.80
2015,06,27,17,05,28.90
2015,06,27,17,06,29.00
2015,06,27,17,07,29.10
2015,06,27,17,08,29.20
2015,06,27,17,09,29.30
2015,06,27,17,10,29.30
2015,06,27,17,11,29.30
2015,06,27,17,12,29.30
2015,06,27,17,13,29.30
2015,06,27,17,14,29.40
2015,06,27,17,15,29.30
2015,06,27,17,16,29.30
2015,06,27,17,17,29.30
2015,06,27,17,18,29.30
2015,06,27,17,19,29.30
2015,06,27,17,20,29.30
2015,06,27,17,21,29.30
2015,06,27,17,22,29.30
2015,06,27,17,23,29.20
2015,06,27,17,24,29.30
2015,06,27,17,25,29.30
2015,06,27,17,26,29.30
2015,06,27,17,27,29.30
2015,06,27,17,28,29.30
2015,06,27,17,29,29.40
2015,06,27,17,30,29.40
2015,06,27,17,31,29.40
2015,06,27,17,32,29.40
2015,06,27,17,33,29.40
2015,06,27,17,34,29.50
2015,06,27,17,35,29.60
2015,06,27,17,36,29.60
2015,06,27,17,37,29.70
2015,06,27,17,38,29.80
2015,06,27,17,39,30.00
2015,06,27,17,40,30.10
2015,06,27,17,41,30.20
2015,06,27,17,42,30.30
2015,06,27,17,43,30.40
2015,06,27,17,44,30.60
2015,06,27,17,45,30.70
2015,06,27,17,46,30.80
2015,06,27,17,47,30.90
2015,06,27,17,48,31.00
2015,06,27,17,49,31.10
2015,06,27,17,50,31.20
2015,06,27,17,51,31.20
2015,06,27,17,52,31.20
2015,06,27,17,53,31.20
2015,06,27,17,54,31.30
2015,06,27,17,55,31.30
2015,06,27,17,56,31.40
2015,06,27,17,57,31.40
2015,06,27,17,58,31.30
2015,06,27,17,59,31.20
2015,06,27,18,00,31.10
2015,06,27,18,01,31.10
2015,06,27,18,02,31.10
2015,06,27,18,03,31.10
2015,06,27,18,04,31.10
2015,06,27,18,05,31.10
2015,06,27,18,06,31.00
2015,06,27,18,07,30.90
2015,06,27,18,08,30.90
2015,06,27,18,09,30.80
2015,06,27,18,10,30.90
2015,06,27,18,11,30.90
2015,06,27,18,12,30.90
2015,06,27,18,13,30.90
2015,06,27,18,14,30.90
2015,06,27,18,15,31.00
2015,06,27,18,16,31.00
2015,06,27,18,17,31.00